Location: Coupvray
(48.8929°N, 2.7967°E)
Time: 10:52:34
(UTC+00:00)

Cosmos 2322 Rocket - Pass Details

Date: 14 July 2020
Orbit: 832 x 851 km, 71.0° (Epoch: 05 August)

Event Time Altitude Azimuth Distance (km) Brightness Sun altitude
Rises 02:42:56 0° 334° (NNW) 3,406 5.7 -10.2°
Reaches altitude 10° 02:45:30 10° 341° (NNW) 2,470 5.1 -9.9°
Maximum altitude 02:50:55 45° 53° (NE) 1,149 3.5 -9.3°
Drops below altitude 10° 02:56:20 10° 126° (SE) 2,468 4.7 -8.7°
Sets 02:58:53 0° 132° (SE) 3,402 5.4 -8.4°
